Ypsilanti, MI

4:25 PM EST on November 15, 2019 (GMT -0500)
Willow Run

Weather History for KYIP - October, 2019

Change the Weather History Date:

Wednesday, October 23, 2019

  Actual Average Record
Temperature  
Mean Temperature 52 °F -  
Max Temperature 63 °F 60 °F 77 °F (1979)
Min Temperature 43 °F 40 °F 24 °F (1969)
Degree Days  
Heating Degree Days 12    
Growing Degree Days 2 (Base 50)    
Moisture  
Dew Point 36 °F    
Average Humidity 57    
Maximum Humidity 79    
Minimum Humidity 34    
Precipitation  
Precipitation 0.00 in - - ()
Sea Level Pressure  
Sea Level Pressure 29.92 in    
Wind  
Wind Speed 12 mph ()    
Max Wind Speed 24 mph    
Max Gust Speed 38 mph    
Visibility 10.0 miles    
Events      
Averages and records for this station are not official NWS values.
T = Trace of Precipitation, MM = Missing Value Source: Averaged Metar Reports

Daily Weather History Graph

Daily Weather History Graph

Search for Another Location

Airport or City:

Astronomy

Oct. 23, 2019 Rise Set
Actual Time 7:55 AM EDT 6:40 PM EDT
Civil Twilight 7:27 AM EDT 7:08 PM EDT
Nautical Twilight 6:54 AM EDT 7:41 PM EDT
Astronomical Twilight 6:22 AM EDT 8:13 PM EDT
Moon 2:05 AM EDT (10/23) 4:37 PM EDT (10/23)
Length of Visible Light 11h 41m
Length of Day
10h 44m
Waning Crescent, 27% of the Moon is Illuminated
Oct 23
Waning Crescent
Oct 27
New
Nov 4
First Quarter
Nov 12
Full
Nov 19
Last Quarter

Hourly Weather History & Observations

Time (EDT) Temp. Windchill Dew Point Humidity Pressure Visibility Wind Dir Wind Speed Gust Speed Precip Events Conditions
12:53 AM 50.0 °F - 37.9 °F 63% 29.78 in 10.0 mi SW 12.7 mph - N/A   Mostly Cloudy
1:53 AM 46.9 °F - 37.9 °F 71% 29.79 in 10.0 mi SW 10.4 mph - N/A   Clear
2:53 AM 46.0 °F 41.0 °F 37.9 °F 73% 29.80 in 10.0 mi SSW 10.4 mph - N/A   Clear
3:53 AM 44.1 °F 39.0 °F 37.9 °F 79% 29.81 in 10.0 mi SW 9.2 mph - N/A   Clear
4:53 AM 45.0 °F 39.3 °F 37.9 °F 76% 29.81 in 10.0 mi SW 11.5 mph - N/A   Clear
5:53 AM 45.0 °F 38.5 °F 37.0 °F 74% 29.84 in 10.0 mi SW 13.8 mph - N/A   Clear
6:53 AM 44.1 °F 37.7 °F 36.0 °F 73% 29.86 in 10.0 mi SSW 12.7 mph - N/A   Clear
7:53 AM 43.0 °F 36.0 °F 34.0 °F 71% 29.88 in 10.0 mi SW 13.8 mph - N/A   Clear
8:53 AM 43.0 °F 36.0 °F 35.1 °F 74% 29.91 in 10.0 mi SW 13.8 mph - N/A   Clear
9:53 AM 46.9 °F - 34.0 °F 61% 29.94 in 10.0 mi SW 18.4 mph - N/A   Clear
10:53 AM 51.1 °F - 34.0 °F 52% 29.95 in 10.0 mi SW 19.6 mph 26.5 mph N/A   Clear
11:53 AM 54.0 °F - 34.0 °F 47% 29.96 in 10.0 mi SW 17.3 mph 26.5 mph N/A   Clear
12:53 PM 57.9 °F - 30.9 °F 36% 29.97 in 10.0 mi WSW 21.9 mph 32.2 mph N/A   Clear
1:53 PM 60.1 °F - 32.0 °F 35% 29.96 in 10.0 mi SW 20.7 mph 38.0 mph N/A   Clear
2:53 PM 61.0 °F - 32.0 °F 34% 29.96 in 10.0 mi WSW 24.2 mph 33.4 mph N/A   Clear
3:53 PM 62.1 °F - 34.0 °F 35% 29.96 in 10.0 mi SW 16.1 mph 31.1 mph N/A   Clear
4:53 PM 61.0 °F - 35.1 °F 38% 29.96 in 10.0 mi SW 13.8 mph 26.5 mph N/A   Overcast
5:53 PM 61.0 °F - 36.0 °F 39% 29.97 in 10.0 mi SW 9.2 mph - N/A   Overcast
6:53 PM 55.9 °F - 36.0 °F 47% 29.99 in 10.0 mi SSW 8.1 mph - N/A   Clear
7:53 PM 54.0 °F - 37.9 °F 55% 30.01 in 10.0 mi South 4.6 mph - N/A   Overcast
8:53 PM 48.9 °F - 37.0 °F 64% 30.02 in 10.0 mi SSE 4.6 mph - N/A   Clear
9:53 PM 50.0 °F - 37.0 °F 61% 30.01 in 10.0 mi South 9.2 mph - N/A   Clear
10:53 PM 51.1 °F - 37.0 °F 59% 30.03 in 10.0 mi SSW 9.2 mph - N/A   Clear
11:53 PM 55.0 °F - 37.0 °F 51% 30.02 in 10.0 mi SSW 12.7 mph - N/A   Overcast